Regional Weather Roundup
Issued by NWS

Home | Current Version | Previous Version | Text Only | Print | Product List | Glossary Off
Versions: 1 2 3 4 5 6 7 8 9 10 11 12 13 14 15 16 17 18 19 20 21 22 23 24 25 26 27 28 29 30 31 32 33 34 35 36 37 38 39 40 41 42 43 44 45 46 47 48 49 50

000
ASUS43 KLOT 240503
RWRIL

ILLINOIS REGIONAL WEATHER ROUNDUP
NATIONAL WEATHER SERVICE CHICAGO/ROMEOVILLE IL
1100 PM CST THU NOV 23 2017

NOTE: "FAIR" INDICATES FEW OR NO CLOUDS BELOW 12,000 FEET WITH NO
SIGNIFICANT WEATHER AND/OR OBSTRUCTIONS TO VISIBILITY.

* THESE STATIONS ARE NOT UNDER NWS QUALITY CONTROL. THEY ALSO MAY NOT
  REPORT WEATHER SUCH AS PRECIPITATION OR FOG.

ILZ001-002-007-009-015-016-024-240600-
NORTHWEST ILLINOIS

CITY           SKY/WX    TMP DP  RH WIND       PRES   REMARKS
MOLINE         NOT AVBL
STERLING*      CLEAR     33  26  75 CALM      29.89F
SAVANNA*       CLEAR     30  26  83 S6        29.86F WCI  24
$$

ILZ003-004-008-010-011-017-018-240600-
NORTH CENTRAL ILLINOIS

CITY           SKY/WX    TMP DP  RH WIND       PRES   REMARKS
ROCKFORD       CLEAR     33  25  72 S5        29.89F WCI  29
FREEPORT*      CLEAR     32  26  77 S9        29.87F WCI  24
ROCHELLE*      CLEAR     30  27  88 S7        29.89F WCI  23
DE KALB*       CLEAR     29  25  85 S6        29.89F WCI  23
PERU*          CLEAR     34  25  70 SW5       29.91S WCI  30
$$

ILZ005-006-012>014-019>023-240600-
NORTHEAST ILLINOIS

CITY           SKY/WX    TMP DP  RH WIND       PRES   REMARKS
CHICAGO-OHARE  CLEAR     36  26  67 SW3       29.89F
CHICAGO-MIDWAY NOT AVBL
AURORA         CLEAR     27  24  89 W3        29.91S
LANSING*       CLEAR     30  28  92 S6        29.91F WCI  24
JOLIET*        CLEAR     30  27  90 CALM      29.91S
WAUKEGAN       CLEAR     34  26  72 SW3       29.88S
DUPAGE AIRPORT CLEAR     33  26  75 CALM      29.89F
KANKAKEE*      CLEAR     32  28  84 S7        29.93F WCI  26
WHEELING       CLEAR     33  26  75 CALM      29.91F
MORRIS*        CLEAR     33  26  77 CALM      29.90F
ROMEOVILLE*    CLEAR     31  28  86 S6        29.90F WCI  25
NORTHERLY ISL    N/A     40  26  58 S2          N/A
$$

LMZ740>746-240600-
SOUTHERN LAKE MICHIGAN

STATION/POSITION SKY/WX   TEMP    WIND        PRES    VSBY  WAVE
                          AIR SEA DIR/SP/G                  HT/PER
                          (F)     (DEG/KT/KT) (MB)    (MI)  (FT/S)
SOUTHERN BUOY              44 47  250/ 14/ 16 1013.0          1/ 3
HARRISON CRIB              42     190/ 12/ 13   N/A
BURNHAM HARBOR             40     190/  2/  7   N/A
CALUMET HARBOR             37     170/  4/  5 1012.3F
BURNS HARBOR               37     180/ 10/ 11 1013.5F
MICHIGAN CITY              37     160/ 12/ 14   N/A
$$

ILZ025>027-034>036-040-047-049-050-058-095>099-240600-
WEST-CENTRAL ILLINOIS

CITY           SKY/WX    TMP DP  RH WIND       PRES   REMARKS
QUINCY         CLEAR     39  29  67 S8        29.91F WCI  33
GALESBURG*     CLOUDY    31  28  89 SE5       29.91F WCI  26
MACOMB*        CLOUDY    33  28  82 S3        29.92F
JACKSONVILLE*  CLEAR     33  28  79 S5        29.93S WCI  29
PITTSFIELD*    CLEAR     32  28  83 SW3       29.94S
$$

ILZ028>032-037-038-041>044-048-051>054-059>061-240600-
CENTRAL ILLINOIS

CITY           SKY/WX    TMP DP  RH WIND       PRES   REMARKS
PONTIAC        CLEAR     29  29  99 SE6       29.92F WCI  23
BLOOMINGTON    CLEAR     29  26  89 S7        29.92F WCI  22
DECATUR        CLEAR     36  27  69 S6        29.95F WCI  31
PEORIA         CLEAR     33  27  78 W3        29.93S
LACON*         CLEAR     32  27  82 CALM      29.91R
LINCOLN*       CLEAR     33  29  87 S3        29.93F
SPRINGFIELD    CLEAR     31  27  85 CALM      29.94F
TAYLORVILLE    CLEAR     34  27  74 S7        29.95F WCI  28
$$

ILZ033-039-045-046-055>057-062-063-240600-
EAST-CENTRAL ILLINOIS

CITY           SKY/WX    TMP DP  RH WIND       PRES   REMARKS
CHAMPAIGN      CLEAR     34  27  75 S9        29.96S WCI  27
DANVILLE*      CLEAR     35  25  68 SW5       29.94S WCI  30
RANTOUL*       CLEAR     34  30  84 S5        29.94F WCI  30
MATTOON        CLEAR     37  26  64 S6        29.96S WCI  32
PARIS*         CLEAR     33  27  80 S9        29.98F WCI  25
$$

ILZ079-100>102-240600-
SOUTHWEST ILLINOIS

CITY           SKY/WX    TMP DP  RH WIND       PRES   REMARKS
ALTON          CLEAR     31  29  91 CALM      29.96S
BELLEVILLE     CLEAR     34  28  76 CALM      29.95F
CAHOKIA*       CLEAR     32  26  78 CALM      29.96F
SPARTA*        CLEAR     41  29  62 S7        29.98F
$$

ILZ064>066-069>071-074>076-080>082-084>086-088>090-092>094-240600-
SOUTH-CENTRAL ILLINOIS

CITY           SKY/WX    TMP DP  RH WIND       PRES   REMARKS
CARBONDALE     CLEAR     38  29  70 S7        30.00S WCI  33
CAIRO*         CLEAR     32  27  82 CALM      30.03S
EFFINGHAM*     CLEAR     33  27  76 SE3       30.00R
MARION         CLEAR     39  30  69 S5        30.00F
MT. VERNON     CLEAR     28  25  88 CALM      29.99F
CENTRALIA*     CLEAR     38  29  71 S5        29.97S WCI  34
SALEM*         CLEAR     39  27  61 CALM      29.98S
METROPOLIS*    CLEAR     32  27  83 CALM      30.03F
$$

ILZ067-068-072-073-078-083-087-091-240600-
SOUTHEAST ILLINOIS

CITY           SKY/WX    TMP DP  RH WIND       PRES   REMARKS
LAWRENCEVILLE  CLEAR     36  25  64 SE3       30.01S
FLORA*         CLOUDY    35  27  72 CALM      29.99S
FAIRFIELD*     CLEAR     38  25  60 CALM      29.99F
HARRISBURG*    CLEAR     33  26  75 CALM      30.01F
ROBINSON*      CLEAR     31  24  76 S3        30.01F
CARMI*         CLOUDY    32  26  77 S6        30.00F WCI  27
$$

ABBREVIATIONS USED IN REMARKS
   TC - TEMPERATURE IN CELSIUS
  WCI - WIND CHILL INDEX
   HX - HEAT INDEX
  VSB - VISIBILITY
$$





USA.gov is the U.S. government's official web portal to all federal, state and local government web resources and services.